User: anonymous   Login
Location: Unspecified
(0.0000°N, 0.0000°E)
Time: 11:22:09
(UTC+00:00)
Language:

USA 290 - Orbit

View from above orbital plane
View from above orbital plane
View from above satellite
View from above satellite

Ground track
Ground track

The orbit data is extracted from the following two-line orbital elements,

1 43941U 19004A   22247.09282648 0.00015000  00000-0  23984-3 0    09
2 43941  73.5440   1.3511 0007731 199.3855 160.6634 15.52998430    07
Epoch (UTC): 04 September 2022 02:13:40
Eccentricity: 0.0007731
inclination: 73.5440°
perigee height: 403 km
apogee height: 413 km
right ascension of ascending node: 1.3511°
argument of perigee: 199.3855°
revolutions per day: 15.52998430
mean anomaly at epoch: 160.6634°
orbit number at epoch: 0

The dashed part of the orbit path shows where the satellite is in the earth's shadow,  

DLR